KCIKMI Weather Reports


Display with metric or nautical units.
time (UTC)temp
F
wind
direction
speed
MPH
gust
MPH
rain 1hr
in
rain 24hr
in
rain mn
in
humidity
%
barometer
mb
20260503001511 50 219 0.0 0.0 0.00 0.01 0.01 89 1008.7
20260503001011 50 218 0.0 0.0 0.00 0.01 0.01 90 1008.6
20260503000510 50 218 0.0 0.0 0.00 0.01 0.01 90 1008.5
20260503000010 51 219 0.0 0.0 0.00 0.01 0.01 90 1008.6
20260502235510 51 219 0.0 0.0 0.00 0.01 0.01 90 1008.7
20260502235010 51 219 0.0 0.0 0.00 0.01 0.01 89 1008.7
20260502234509 51 219 0.0 0.0 0.00 0.01 0.01 89 1008.7
20260502234009 51 219 0.0 0.0 0.00 0.01 0.01 89 1008.6
20260502233508 51 218 0.0 0.0 0.00 0.01 0.01 89 1008.7
20260502233010 51 218 0.0 0.0 0.00 0.01 0.01 89 1008.7
20260502232509 51 218 0.0 0.0 0.00 0.01 0.01 89 1008.8
20260502232012 51 218 0.0 0.0 0.00 0.01 0.01 89 1008.8
20260502231515 51 218 0.0 0.0 0.00 0.01 0.01 88 1008.8
20260502231010 51 218 0.0 0.0 0.00 0.01 0.01 88 1008.7
20260502230508 51 218 0.0 0.0 0.00 0.01 0.01 88 1008.8
20260502230009 51 218 0.0 0.0 0.00 0.01 0.01 88 1008.8
20260502225507 51 218 0.0 0.0 0.00 0.01 0.01 88 1008.9
20260502225007 51 218 0.0 0.0 0.00 0.01 0.01 87 1008.8
20260502224506 51 219 0.0 0.0 0.00 0.01 0.01 87 1008.8
20260502224006 51 219 0.0 0.0 0.00 0.01 0.01 87 1008.8
20260502223508 51 219 0.0 0.0 0.00 0.01 0.01 87 1008.7
20260502223007 51 219 0.0 0.0 0.00 0.01 0.01 87 1008.8
20260502222507 51 218 0.0 0.0 0.00 0.01 0.01 87 1008.7
20260502222006 51 217 0.0 0.0 0.00 0.01 0.01 87 1008.7
20260502221506 51 217 0.0 0.0 0.00 0.01 0.01 87 1008.7
20260502221006 52 217 0.0 0.0 0.00 0.01 0.01 86 1008.7
20260502220506 51 219 0.0 1.0 0.00 0.01 0.01 86 1008.6
20260502220009 52 219 0.0 1.0 0.00 0.01 0.01 86 1008.8
20260502215506 52 176 0.0 1.0 0.00 0.01 0.01 86 1008.7
20260502215005 52 208 0.0 0.0 0.00 0.01 0.01 86 1008.8
20260502214504 52 208 0.0 2.0 0.00 0.01 0.01 86 1008.7
20260502214005 52 208 0.0 2.0 0.00 0.01 0.01 86 1008.8
20260502213504 52 230 0.0 0.0 0.00 0.01 0.01 86 1008.6
20260502213004 52 196 0.0 2.0 0.00 0.01 0.01 86 1008.7
20260502212504 52 196 0.0 2.0 0.00 0.01 0.01 86 1008.6
20260502212004 52 189 0.0 1.0 0.00 0.01 0.01 86 1008.6
20260502211507 52 190 0.0 2.0 0.00 0.01 0.01 86 1008.4
20260502211003 52 204 0.0 2.0 0.00 0.01 0.01 86 1008.4
20260502210501 52 207 0.0 0.0 0.00 0.01 0.01 86 1008.5
20260502210001 52 196 0.0 3.0 0.00 0.01 0.01 86 1008.7
20260502205500 52 230 0.0 3.0 0.00 0.01 0.01 86 1008.7
20260502205100 52 191 0.0 3.0 0.00 0.01 0.01 86 1008.7
20260502204601 52 209 0.0 2.0 0.00 0.01 0.01 86 1008.8
20260502204059 52 216 0.0 2.0 0.00 0.01 0.01 85 1008.7
20260502203558 52 199 0.0 1.0 0.00 0.01 0.01 86 1008.8
20260502203058 52 192 0.0 2.0 0.00 0.01 0.01 86 1008.8
20260502202558 52 195 0.0 2.0 0.00 0.01 0.01 86 1008.8
20260502202059 52 199 0.0 1.0 0.00 0.01 0.01 85 1008.8
20260502201604 52 235 0.0 1.0 0.00 0.01 0.01 85 1008.9
20260502201057 52 209 0.0 3.0 0.00 0.01 0.01 86 1008.9
20260502200556 52 200 0.0 3.0 0.00 0.01 0.01 85 1009.0
20260502200105 52 198 0.0 2.0 0.00 0.01 0.01 85 1009.1
20260502195555 52 201 0.0 3.0 0.00 0.01 0.01 85 1009.1
20260502195101 52 239 0.0 3.0 0.00 0.01 0.01 85 1009.1
20260502194610 53 221 0.0 3.0 0.00 0.01 0.01 85 1009.2
20260502194053 53 216 0.0 3.0 0.01 0.01 0.01 85 1009.3
20260502193553 53 211 0.0 3.0 0.01 0.01 0.01 85 1009.2
20260502193059 53 206 0.0 4.0 0.01 0.01 0.01 85 1009.2
20260502192553 53 196 0.0 4.0 0.01 0.01 0.01 86 1009.3
20260502192051 53 195 0.0 3.0 0.01 0.01 0.01 85 1009.4
20260502191554 53 211 0.0 2.0 0.01 0.01 0.01 86 1009.6
20260502191054 53 215 0.0 4.0 0.01 0.01 0.01 85 1009.6
20260502190549 53 202 0.0 4.0 0.01 0.01 0.01 85 1009.6
20260502185548 53 208 0.0 1.0 0.01 0.01 0.01 85 1009.8
20260502185049 53 197 0.0 3.0 0.01 0.01 0.01 84 1009.8
20260502184556 53 166 0.0 4.0 0.01 0.01 0.01 83 1009.9
20260502184047 53 216 1.0 4.0 0.00 0.00 0.00 82 1009.9
20260502183546 53 169 0.0 5.0 0.00 0.00 0.00 81 1010.1
20260502183047 53 197 0.0 5.0 0.00 0.00 0.00 80 1009.9
20260502182548 54 227 0.0 4.0 0.00 0.00 0.00 79 1009.9
20260502182047 54 201 1.0 4.0 0.00 0.00 0.00 79 1009.7
20260502181546 53 197 0.0 3.0 0.00 0.00 0.00 81 1009.8
20260502181045 53 204 0.0 3.0 0.00 0.00 0.00 81 1009.9
20260502180545 53 200 0.0 3.0 0.00 0.00 0.00 81 1010.0
20260502180112 53 180 0.0 3.0 0.00 0.00 0.00 81 1010.0
20260502164042 53 225 0.0 1.0 0.00 0.00 0.00 80 1010.2
20260502163542 54 166 0.0 2.0 0.00 0.00 0.00 79 1010.2
20260502163042 54 214 0.0 3.0 0.00 0.00 0.00 79 1010.2
20260502162542 54 242 0.0 3.0 0.00 0.00 0.00 79 1010.1
20260502162042 54 195 0.0 3.0 0.00 0.00 0.00 78 1010.3
20260502161541 54 205 0.0 3.0 0.00 0.00 0.00 79 1010.2
20260502161042 54 191 0.0 4.0 0.00 0.00 0.00 80 1010.2
20260502160541 54 201 1.0 4.0 0.00 0.00 0.00 80 1010.2
20260502152042 56 214 0.0 2.0 0.00 0.00 0.00 76 1010.5
20260502151546 56 195 0.0 3.0 0.00 0.00 0.00 75 1010.6
20260502151039 56 202 0.0 3.0 0.00 0.00 0.00 74 1010.5
20260502150539 57 185 0.0 0.0 0.00 0.00 0.00 74 1010.9
20260502130525 53 17 0.0 3.0 0.00 0.00 0.00 79 1011.3
20260502123522 52 197 0.0 1.0 0.00 0.00 0.00 81 1011.1
20260502123022 51 197 0.0 2.0 0.00 0.00 0.00 80 1011.2
20260502122521 51 199 0.0 2.0 0.00 0.00 0.00 81 1011.3
20260502122021 51 190 0.0 2.0 0.00 0.00 0.00 81 1011.2
20260502121523 51 191 0.0 3.0 0.00 0.00 0.00 81 1011.0
20260502121020 51 172 0.0 3.0 0.00 0.00 0.00 81 1010.9
20260502120519 51 207 0.0 2.0 0.00 0.00 0.00 81 1010.9
20260502115520 51 189 0.0 4.0 0.00 0.00 0.00 81 1010.9
20260502115019 50 183 1.0 3.0 0.00 0.00 0.00 81 1010.9
20260502114517 50 202 0.0 3.0 0.00 0.00 0.00 81 1011.0
20260502114016 50 199 0.0 3.0 0.00 0.00 0.00 80 1010.9
20260502113516 50 185 0.0 2.0 0.00 0.00 0.00 81 1010.8
20260502113018 50 208 0.0 3.0 0.00 0.00 0.00 81 1010.8
20260502112515 50 202 0.0 3.0 0.00 0.00 0.00 81 1010.7
20260502112014 50 196 0.0 2.0 0.00 0.00 0.00 81 1010.7
20260502111513 50 197 0.0 2.0 0.00 0.00 0.00 81 1010.6
20260502111013 50 202 0.0 2.0 0.00 0.00 0.00 81 1010.6
20260502110513 49 195 0.0 2.0 0.00 0.00 0.00 81 1010.6
20260502110013 49 190 0.0 2.0 0.00 0.00 0.00 81 1010.6
20260502105512 49 196 0.0 2.0 0.00 0.00 0.00 80 1010.6
20260502105011 49 196 0.0 2.0 0.00 0.00 0.00 80 1010.7
20260502104510 49 202 0.0 0.0 0.00 0.00 0.00 80 1010.5
20260502104010 49 197 0.0 0.0 0.00 0.00 0.00 80 1010.5
20260502103510 49 199 0.0 0.0 0.00 0.00 0.00 80 1010.4
20260502103010 49 199 0.0 0.0 0.00 0.00 0.00 80 1010.4
20260502102510 49 195 0.0 0.0 0.00 0.00 0.00 80 1010.3
20260502102010 49 193 0.0 0.0 0.00 0.00 0.00 80 1010.2
20260502101511 49 193 0.0 0.0 0.00 0.00 0.00 79 1010.3
20260502101009 49 193 0.0 0.0 0.00 0.00 0.00 79 1010.2
20260502100509 49 193 0.0 0.0 0.00 0.00 0.00 79 1010.2
20260502091506 49 191 0.0 0.0 0.00 0.00 0.00 77 1010.1
20260502091006 49 192 0.0 0.0 0.00 0.00 0.00 77 1010.1
20260502090505 49 189 0.0 0.0 0.00 0.00 0.00 78 1010.0
20260502071057 50 195 0.0 3.0 0.00 0.00 0.00 73 1009.9
20260502070556 50 188 0.0 2.0 0.00 0.00 0.00 73 1009.9
20260502070055 50 184 0.0 0.0 0.00 0.00 0.00 73 1010.0
20260502065554 50 184 0.0 0.0 0.00 0.00 0.00 72 1010.0
20260502065055 51 184 0.0 0.0 0.00 0.00 0.00 71 1009.9
20260502064552 51 184 0.0 1.0 0.00 0.00 0.00 71 1010.0
20260502064051 51 184 0.0 1.0 0.00 0.00 0.00 70 1010.0
20260502063550 52 183 0.0 0.0 0.00 0.00 0.00 70 1010.1
20260502063051 52 183 0.0 1.0 0.00 0.00 0.00 69 1010.1
20260502062549 52 183 0.0 1.0 0.00 0.00 0.00 68 1010.2
20260502062050 52 178 0.0 3.0 0.00 0.00 0.00 68 1010.1
20260502061549 52 178 0.0 3.0 0.00 0.00 0.00 68 1010.2
20260502061048 52 190 0.0 2.0 0.00 0.00 0.00 69 1010.0
20260502060647 52 191 0.0 2.0 0.00 0.00 0.00 68 1010.1
20260502060047 52 192 0.0 2.0 0.00 0.00 0.00 68 1010.1
20260502055547 52 189 0.0 2.0 0.00 0.00 0.00 67 1010.2
20260502055046 52 191 0.0 4.0 0.00 0.00 0.00 67 1010.2
20260502054547 52 192 0.0 4.0 0.00 0.00 0.00 66 1010.2
20260502054046 52 195 1.0 4.0 0.00 0.00 0.00 66 1010.3
20260502053544 52 196 1.0 3.0 0.00 0.00 0.00 67 1010.4
20260502053052 52 190 0.0 2.0 0.00 0.00 0.00 67 1010.4
20260502052544 52 188 0.0 3.0 0.00 0.00 0.00 66 1010.3
20260502052043 52 193 0.0 3.0 0.00 0.00 0.00 67 1010.3
20260502051555 52 192 0.0 1.0 0.00 0.00 0.00 67 1010.3
20260502051042 51 184 0.0 0.0 0.00 0.00 0.00 67 1010.3
20260502050544 52 171 0.0 1.0 0.00 0.00 0.00 68 1010.2
20260502050054 52 190 0.0 1.0 0.00 0.00 0.00 68 1010.3
20260502045544 52 195 0.0 1.0 0.00 0.00 0.00 69 1010.3
20260502045040 52 177 0.0 4.0 0.00 0.00 0.00 68 1010.4
20260502044541 52 197 0.0 4.0 0.00 0.00 0.00 68 1010.4
20260502044039 52 194 0.0 0.0 0.00 0.00 0.00 68 1010.4
20260502043537 52 194 0.0 3.0 0.00 0.00 0.00 68 1010.4
20260502043038 52 199 0.0 3.0 0.00 0.00 0.00 68 1010.4
20260502042539 52 213 1.0 5.0 0.00 0.00 0.00 67 1010.5
20260502042036 52 189 0.0 5.0 0.00 0.00 0.00 68 1010.4
20260502041538 52 171 0.0 3.0 0.00 0.00 0.00 68 1010.4
20260502041034 52 194 0.0 3.0 0.00 0.00 0.00 68 1010.5
20260502040535 52 190 0.0 3.0 0.00 0.00 0.00 68 1010.5
20260502040033 52 174 1.0 3.0 0.00 0.00 0.00 68 1010.5
20260502035533 52 174 1.0 4.0 0.00 0.00 0.00 68 1010.5
20260502035033 52 191 0.0 4.0 0.00 0.00 0.00 67 1010.5
20260502034536 52 203 0.0 4.0 0.00 0.00 0.00 68 1010.5
20260502034033 53 185 1.0 4.0 0.00 0.00 0.00 67 1010.5
20260502033533 53 175 0.0 4.0 0.00 0.00 0.00 68 1010.5
20260502033036 53 185 0.0 4.0 0.00 0.00 0.00 67 1010.4
20260502032532 53 187 0.0 4.0 0.00 0.00 0.00 67 1010.3
20260502032032 53 197 0.0 3.0 0.00 0.00 0.00 67 1010.5
20260502031532 53 228 0.0 2.0 0.00 0.00 0.00 67 1010.4
20260502031032 53 194 0.0 2.0 0.00 0.00 0.00 67 1010.4
20260502030531 53 172 0.0 2.0 0.00 0.00 0.00 66 1010.4
20260502030030 53 187 0.0 2.0 0.00 0.00 0.00 67 1010.3
20260502025534 53 202 0.0 1.0 0.00 0.00 0.00 66 1010.3
20260502025030 53 166 0.0 1.0 0.00 0.00 0.00 66 1010.3
20260502024532 53 200 0.0 3.0 0.00 0.00 0.00 65 1010.2
20260502024029 54 208 0.0 4.0 0.00 0.00 0.00 65 1010.2
20260502023529 54 189 0.0 4.0 0.00 0.00 0.00 64 1010.2
20260502023029 54 183 0.0 4.0 0.00 0.00 0.00 64 1010.2
20260502022529 54 190 0.0 4.0 0.00 0.00 0.00 64 1010.2
20260502022031 54 190 0.0 4.0 0.00 0.00 0.00 63 1010.2
20260502021528 54 199 0.0 4.0 0.00 0.00 0.00 63 1010.3
20260502021028 55 166 0.0 2.0 0.00 0.00 0.00 62 1010.2
20260502020528 55 193 0.0 6.0 0.00 0.00 0.00 61 1010.2
20260502020028 55 191 0.0 6.0 0.00 0.00 0.00 59 1010.3
20260502015528 55 167 0.0 2.0 0.00 0.00 0.00 58 1010.2
20260502015030 55 188 0.0 2.0 0.00 0.00 0.00 57 1010.2
20260502014531 55 192 0.0 2.0 0.00 0.00 0.00 56 1010.2
20260502014026 55 207 0.0 3.0 0.00 0.00 0.00 55 1010.2
20260502013526 55 192 0.0 3.0 0.00 0.00 0.00 55 1010.1
20260502013025 55 187 0.0 2.0 0.00 0.00 0.00 53 1010.1
20260502012525 55 205 0.0 2.0 0.00 0.00 0.00 52 1010.1
20260502012025 56 164 0.0 1.0 0.00 0.00 0.00 52 1010.0
20260502011542 56 196 0.0 0.0 0.00 0.00 0.00 52 1010.0
20260502011024 56 180 0.0 0.0 0.00 0.00 0.00 51 1009.8
20260502010523 56 195 0.0 0.0 0.00 0.00 0.00 51 1009.8
20260502010024 56 195 0.0 0.0 0.00 0.00 0.00 50 1009.8
20260502005522 57 190 0.0 1.0 0.00 0.00 0.00 52 1009.7
20260502005022 57 191 0.0 4.0 0.00 0.00 0.00 51 1009.6
20260502004524 57 203 0.0 4.0 0.00 0.00 0.00 51 1009.4
20260502004020 57 197 0.0 3.0 0.00 0.00 0.00 51 1009.3
20260502003518 57 200 0.0 2.0 0.00 0.00 0.00 50 1009.3
20260502003024 58 202 0.0 3.0 0.00 0.00 0.00 49 1009.1
20260502002518 58 181 1.0 3.0 0.00 0.00 0.00 48 1009.0
20260502002018 58 188 0.0 2.0 0.00 0.00 0.00 48 1008.9